Zurück zum Katalog

STARLINK-5951

AktivKommunikationVLEO
NORAD 56918·PAYLOAD·🇺🇸 United States

Gestartet Jun 12, 2023 von Cape Canaveral Space Force Station

Loading…

Nächste Überflüge (nächste 24 Stunden)

TLE

AktuellSource: CelesTrak SupGP

Epoche: Sep 14, 2026, 21:07 UTC

1 56918C 23083AU  26257.88034722  .00026328  00000+0  95379-3 0  2574
2 56918  43.0013  82.0204 0001262 258.4654 143.7729 15.27559520    18

Verfolge STARLINK-5951 in Echtzeit mit AllMySat

Download on the App Store